BAW865 LHBP-EGLL

Flight info

Callsign BAW865
Flight time N/A
Altitude 24000
Route GILEP2L GILEP DCT ZOLKU DCT TEKNO DCT ABETI/N0453F380 DCT RENKA DCT INBED DCT BOMBI DCT ADKUV DCT LENDO DCT SOGRI DCT DENUT L608 LOGAN LOGAN2H
Aircraft A319/M-SDE2E3FGHIJ1RWXY/SB1

Departure

Time 2026-05-07 12:43
Airport Budapest Liszt Ferenc International Airport (LHBP)

Arrival

Time N/A
Airport London Heathrow Airport (EGLL)
Time Latitude Longitude Altitude Speed Heading
2026-05-07 11:55 47.43089 19.26006 458 ft 0 kts 42°
2026-05-07 12:33 47.43076 19.25985 457 ft 4 kts 62°
2026-05-07 12:33 47.43068 19.25948 457 ft 4 kts 80°
2026-05-07 12:34 47.43063 19.25917 456 ft 4 kts 46°
2026-05-07 12:34 47.43045 19.25915 455 ft 4 kts 319°
2026-05-07 12:34 47.43045 19.25914 455 ft 4 kts 313°
2026-05-07 12:34 47.43063 19.25884 457 ft 4 kts 313°
2026-05-07 12:35 47.43076 19.25864 457 ft 0 kts 313°
2026-05-07 12:40 47.43079 19.25859 456 ft 2 kts 313°
2026-05-07 12:40 47.43101 19.25823 457 ft 8 kts 312°
2026-05-07 12:40 47.43144 19.25754 457 ft 10 kts 312°
2026-05-07 12:40 47.43198 19.25665 456 ft 12 kts 312°
2026-05-07 12:41 47.43258 19.25567 457 ft 14 kts 312°
2026-05-07 12:41 47.43327 19.25455 456 ft 14 kts 313°
2026-05-07 12:41 47.43312 19.25346 457 ft 12 kts 224°
2026-05-07 12:41 47.43241 19.25249 457 ft 15 kts 222°
2026-05-07 12:42 47.43166 19.25149 457 ft 15 kts 222°
2026-05-07 12:42 47.43087 19.25043 457 ft 14 kts 223°
2026-05-07 12:42 47.43115 19.24917 457 ft 21 kts 312°
2026-05-07 12:42 47.43323 19.24577 453 ft 73 kts 312°
2026-05-07 12:43 47.43795 19.23814 455 ft 127 kts 313°
2026-05-07 12:43 47.44501 19.22685 588 ft 160 kts 307°
2026-05-07 12:43 47.45249 19.21499 1289 ft 155 kts 308°
2026-05-07 12:43 47.45992 19.20343 1984 ft 159 kts 309°
2026-05-07 12:44 47.46789 19.19101 2449 ft 175 kts 308°
2026-05-07 12:44 47.47648 19.17725 2975 ft 189 kts 308°
2026-05-07 12:44 47.48526 19.16129 3468 ft 211 kts 297°
2026-05-07 12:44 47.49080 19.14038 4058 ft 227 kts 279°
2026-05-07 12:45 47.49202 19.11625 4645 ft 247 kts 263°
2026-05-07 12:45 47.48743 19.09108 5385 ft 259 kts 244°
2026-05-07 12:45 47.47726 19.06890 6321 ft 264 kts 226°
2026-05-07 12:45 47.46242 19.05295 7243 ft 268 kts 207°
2026-05-07 12:46 47.44602 19.03957 8175 ft 270 kts 218°
2026-05-07 12:46 47.43470 19.01758 9187 ft 272 kts 242°
2026-05-07 12:46 47.42935 18.99065 10153 ft 278 kts 262°
2026-05-07 12:46 47.42963 18.96099 10582 ft 302 kts 270°
2026-05-07 12:47 47.43069 18.94133 10752 ft 317 kts 272°
2026-05-07 12:47 47.43318 18.90823 11285 ft 329 kts 274°
2026-05-07 12:47 47.43612 18.87447 12019 ft 334 kts 274°
2026-05-07 12:47 47.43915 18.84019 12771 ft 338 kts 274°
2026-05-07 12:48 47.44212 18.80564 13564 ft 342 kts 273°
2026-05-07 12:48 47.44501 18.77060 14255 ft 346 kts 273°
2026-05-07 12:48 47.44782 18.73518 14904 ft 349 kts 273°
2026-05-07 12:48 47.45060 18.69927 15562 ft 353 kts 272°
2026-05-07 12:49 47.45334 18.66315 16211 ft 356 kts 272°
2026-05-07 12:49 47.45610 18.62655 16849 ft 360 kts 272°
2026-05-07 12:49 47.45887 18.58951 17489 ft 364 kts 272°
2026-05-07 12:49 47.46166 18.55216 18122 ft 368 kts 272°
2026-05-07 12:50 47.46450 18.51435 18733 ft 372 kts 272°
2026-05-07 12:50 47.46738 18.47629 19347 ft 374 kts 272°
2026-05-07 12:50 47.47028 18.43791 19969 ft 377 kts 272°
2026-05-07 12:50 47.47318 18.39935 20589 ft 379 kts 272°
2026-05-07 12:51 47.47605 18.36051 21184 ft 381 kts 272°
2026-05-07 12:51 47.47889 18.32141 21782 ft 383 kts 272°
2026-05-07 12:51 47.48172 18.28210 22354 ft 386 kts 271°
2026-05-07 12:51 47.48608 18.24220 22909 ft 393 kts 279°
2026-05-07 12:52 47.49255 18.20337 23449 ft 395 kts 279°
2026-05-07 12:52 47.49917 18.16376 23912 ft 398 kts 279°
2026-05-07 12:52 47.50579 18.12396 24364 ft 399 kts 278°
2026-05-07 12:52 47.51241 18.08397 24823 ft 401 kts 278°
2026-05-07 12:53 47.51909 18.04329 25288 ft 403 kts 278°
2026-05-07 12:53 47.52566 18.00295 25745 ft 404 kts 278°
2026-05-07 12:53 47.53224 17.96243 26200 ft 405 kts 278°
2026-05-07 12:53 47.53882 17.92182 26649 ft 407 kts 278°
2026-05-07 12:54 47.54545 17.88098 27099 ft 409 kts 278°
2026-05-07 12:54 47.55199 17.84057 27533 ft 410 kts 277°
2026-05-07 12:54 47.55864 17.79942 27968 ft 412 kts 277°
2026-05-07 12:54 47.56544 17.75810 28394 ft 414 kts 278°
2026-05-07 12:55 47.57240 17.71666 28808 ft 416 kts 278°
2026-05-07 12:55 47.57948 17.67499 29201 ft 418 kts 278°
2026-05-07 12:55 47.58659 17.63316 29602 ft 420 kts 278°
2026-05-07 12:55 47.59369 17.59113 29984 ft 422 kts 277°
2026-05-07 12:56 47.60075 17.54881 30304 ft 424 kts 277°
2026-05-07 12:56 47.60779 17.50630 30622 ft 426 kts 277°
2026-05-07 12:56 47.61480 17.46361 30965 ft 427 kts 277°
2026-05-07 12:56 47.62183 17.42072 31329 ft 430 kts 277°
2026-05-07 12:57 47.62875 17.37719 31825 ft 427 kts 276°
2026-05-07 12:57 47.63490 17.33485 32281 ft 424 kts 275°
2026-05-07 12:57 47.64068 17.29215 32731 ft 421 kts 274°
2026-05-07 12:57 47.64609 17.25079 33171 ft 420 kts 273°
2026-05-07 12:58 47.65159 17.20840 33612 ft 418 kts 273°
2026-05-07 12:58 47.65714 17.16604 34053 ft 417 kts 273°
2026-05-07 12:58 47.66275 17.12386 34406 ft 417 kts 274°
2026-05-07 12:58 47.66844 17.08162 34719 ft 418 kts 274°
2026-05-07 12:59 47.67416 17.03927 35016 ft 420 kts 275°
2026-05-07 12:59 47.68219 16.99720 35300 ft 429 kts 284°
2026-05-07 12:59 47.69359 16.95604 35592 ft 431 kts 285°
2026-05-07 12:59 47.70509 16.91493 35885 ft 432 kts 286°
2026-05-07 13:00 47.71656 16.87363 36177 ft 432 kts 286°
2026-05-07 13:00 47.72795 16.83231 36453 ft 433 kts 286°
2026-05-07 13:00 47.73933 16.79087 36732 ft 433 kts 286°
2026-05-07 13:00 47.75086 16.74888 37014 ft 433 kts 287°
2026-05-07 13:01 47.76226 16.70743 37287 ft 434 kts 287°
2026-05-07 13:01 47.77370 16.66595 37555 ft 434 kts 287°
2026-05-07 13:01 47.78513 16.62439 37828 ft 434 kts 287°
2026-05-07 13:01 47.79652 16.58286 37969 ft 434 kts 287°
2026-05-07 13:02 47.81930 16.49964 37987 ft 434 kts 287°
2026-05-07 13:02 47.84192 16.41655 37988 ft 434 kts 287°
2026-05-07 13:03 47.86453 16.33317 37982 ft 434 kts 287°
2026-05-07 13:03 47.88708 16.24985 37984 ft 434 kts 287°
2026-05-07 13:04 47.90953 16.16648 37993 ft 434 kts 287°
2026-05-07 13:04 47.93186 16.08300 37994 ft 434 kts 287°
2026-05-07 13:05 47.95435 15.99899 37994 ft 435 kts 287°
2026-05-07 13:05 47.97667 15.91517 37996 ft 435 kts 287°
2026-05-07 13:06 47.99877 15.83181 37996 ft 435 kts 287°
2026-05-07 13:06 48.02099 15.74773 37991 ft 435 kts 287°
2026-05-07 13:07 48.04311 15.66404 37989 ft 435 kts 287°
2026-05-07 13:07 48.06535 15.57956 37997 ft 435 kts 287°
2026-05-07 13:08 48.08728 15.49571 37994 ft 435 kts 287°
2026-05-07 13:08 48.10932 15.41115 37997 ft 435 kts 287°
2026-05-07 13:09 48.13108 15.32715 37992 ft 434 kts 287°
2026-05-07 13:09 48.15279 15.24303 37993 ft 435 kts 287°
2026-05-07 13:10 48.17473 15.15806 37997 ft 435 kts 287°
2026-05-07 13:10 48.19629 15.07388 37992 ft 435 kts 287°
2026-05-07 13:11 48.21799 14.98919 37986 ft 435 kts 287°
2026-05-07 13:11 48.23986 14.90378 37989 ft 436 kts 287°
2026-05-07 13:12 48.26136 14.81932 37984 ft 437 kts 287°
2026-05-07 13:12 48.28293 14.73407 37994 ft 437 kts 286°
2026-05-07 13:13 48.30441 14.64872 37999 ft 437 kts 286°
2026-05-07 13:13 48.32583 14.56320 38000 ft 437 kts 287°
2026-05-07 13:14 48.34729 14.47749 38008 ft 438 kts 287°
2026-05-07 13:14 48.36508 14.40626 38010 ft 438 kts 286°